Tracking 33750 objects as of 15-Apr-2026
HD Live streaming from Space Station
objects crossing your sky now

STARLINK-34288

Track STARLINK-34288 now!
10-day predictions
STARLINK-34288 is classified as:


NORAD ID: 64673
Int'l Code: 2025-139K
Perigee: 481.5 km
Apogee: 483.3 km
Inclination: 53.2 °
Period: 94.1 minutes
Semi major axis: 6853 km
RCS: Unknown
Launch date: June 28, 2025
Source: United States (US)
Launch site: AIR FORCE EASTERN TEST RANGE (AFETR)
Your satellite tracking list
Your tracking list is empty




NASA's NSSDC Master Catalog

Two Line Element Set (TLE):
1 64673U 25139K   26104.99638996  .00016087  00000-0  55418-3 0  9996
2 64673  53.1595 318.3423 0001322  92.7428 267.3724 15.30195139 45849
Source of the keplerian elements: AFSPC